Location: Borotín
(49.5055°N, 14.6142°E)
Time: 06:04:16
(UTC+00:00)

Cosmos 1703 - Pass Details

Date: 27 May 2022
Orbit: 518 x 535 km, 82.5° (Epoch: 28 June)

Event Time Altitude Azimuth Distance (km) Brightness Sun altitude
Exits shadow 01:24:51 14° 180° (S) 1,571 5.2 -12.1°
Maximum altitude 01:28:13 71° 98° (E) 571 3.4 -11.8°
Drops below altitude 10° 01:32:09 10° 14° (NNE) 1,797 7.1 -11.5°
Sets 01:34:19 0° 12° (NNE) 2,690 8.2 -11.2°
